Regional Weather Roundup
Issued by NWS

Home | Current Version | Previous Version | Graphics & Text | Print | Product List | Glossary On
Versions: 1 2 3 4 5 6 7 8 9 10 11 12 13 14 15 16 17 18 19 20 21 22 23 24 25 26 27 28 29 30 31 32 33 34 35 36 37 38 39 40 41 42 43 44 45 46 47 48 49 50
832
ASUS43 KOAX 162302
RWRNE

WEATHER ROUNDUP FOR NEBRASKA
NATIONAL WEATHER SERVICE OMAHA NE
500 PM CST MON JAN 16 2017

NOTES: SATELLITE DATA IS BEING USED TO AUGMENT CLOUD COVER ABOVE
       12000 FEET.
       "FAIR" INDICATES FEW OR NO CLOUDS BELOW 12,000 FEET WITH NO
       SIGNIFICANT WEATHER AND/OR OBSTRUCTIONS TO VISIBILITY.

  * THESE STATIONS DO NOT REPORT WEATHER SUCH AS RAIN...SNOW OR FOG.

NEZ001>004-019>022-054>056-170000-
NEBRASKA PANHANDLE

CITY           SKY/WX    TMP DP  RH WIND       PRES   REMARKS
SCOTTSBLUFF    CLOUDY    40  19  43 N9        30.07R WCI  34
ALLIANCE       CLOUDY    36  16  44 N9        30.05R WCI  29
CHADRON        CLEAR     32  20  61 NW9       30.09R WCI  24
KIMBALL        CLOUDY    36  23  58 N8        30.06R WCI  30
SIDNEY         CLOUDY    35  24  64 NW10      30.05R WCI  27
$$

NEZ057>060-069>072-079>082-170000-
SOUTHWEST NEBRASKA

CITY           SKY/WX    TMP DP  RH WIND       PRES   REMARKS
NORTH PLATTE   CLOUDY    37  28  70 N12       30.00R WCI  29
IMPERIAL       CLOUDY    35  27  72 N15       30.02R WCI  25
LEXINGTON      CLOUDY    34  31  86 NW13      29.97S WCI  25
MCCOOK         CLOUDY    35  32  88 NW9       29.99R WCI  28
OGALLALA       CLOUDY    37  30  75 NW16      30.02R WCI  27
$$

NEZ005>010-023>029-035>040-094-170000-
NORTH CENTRAL NEBRASKA

CITY           SKY/WX    TMP DP  RH WIND       PRES   REMARKS
VALENTINE      CLOUDY    31  16  54 NW12G21   30.04R WCI  22
AINSWORTH      CLOUDY    32  20  61 NW14G20   30.01R WCI  22
BROKEN BOW     CLOUDY    34  30  85 N15       29.97R WCI  24
ORD            CLOUDY    32  27  81 N15       29.96R WCI  22
THEDFORD       CLOUDY    37  22  54 NW13      30.01R WCI  29
$$

NEZ041-046>049-061>064-073>077-083>087-170000-
SOUTH CENTRAL NEBRASKA

CITY           SKY/WX    TMP DP  RH WIND       PRES   REMARKS
GRAND ISLAND   FRZ RAIN N/A N/A N/A N9        29.93R FOG
HASTINGS       CLOUDY    33  31  92 N14       29.94R WCI  23
HOLDREGE       CLOUDY    32  32  97 N3        29.95R FOG
KEARNEY *      CLOUDY    32  28  86 N7        29.95R WCI  26
YORK           CLOUDY    32  32 100 CALM      29.92R FOG
$$

NEZ011>018-030>034-042>045-170000-
NORTHEAST NEBRASKA

CITY           SKY/WX    TMP DP  RH WIND       PRES   REMARKS
NORFOLK        MIX PCPN  31  29  92 N8        29.93R FOG     WCI  23
ALBION         MIX PCPN  32  30  92 N6        29.95R WCI  26
FREMONT        MIX PCPN  33  33 100 N5        29.92R WCI  28
TEKAMAH        LGT RAIN  33  32  96 N13       29.92R FOG     WCI  24
WAYNE          MIX PCPN  32  31  96 N5        29.94S WCI  27
$$

NEZ050>053-065>068-078-088>093-170000-
SOUTHEAST NEBRASKA

CITY           SKY/WX    TMP DP  RH WIND       PRES   REMARKS
LINCOLN        CLOUDY    33  32  96 N15       29.91R WCI  23
OMAHA EPPLEY   CLOUDY    34  30  85 N10       29.90S FOG     WCI  26
BEATRICE       CLOUDY    33  33  99 N7        29.89R FOG     WCI  27
FALLS CITY     CLOUDY    35  35 100 NW7       29.85R FOG     WCI  29
NEBRASKA CITY  CLOUDY    33  33 100 N9        29.87R FOG     WCI  25
PLATTSMOUTH    CLOUDY    33  32  95 N5        29.88R FOG     WCI  29
$$

NEZ044-045-051>053-067-170000-
OMAHA AREA

CITY           SKY/WX    TMP DP  RH WIND       PRES   REMARKS
OMAHA EPPLEY   CLOUDY    34  30  85 N10       29.90S FOG     WCI  26
FREMONT        MIX PCPN  33  33 100 N5        29.92R WCI  28
MILLARD        CLOUDY    36  34  94 NW3       29.90S
OFFUTT AFB     CLOUDY    34  34 100 N7        29.89R WCI  28
PLATTSMOUTH    CLOUDY    33  32  95 N5        29.88R FOG     WCI  29
WAHOO          LGT SNOW  32  32  99 N12       29.92R WCI  23
$$




USA.gov is the U.S. government's official web portal to all federal, state and local government web resources and services.